| time (UTC) | temp F | wind direction | speed knots | gust knots | rain 1hr in | rain 24hr in | rain mn in | humidity % | barometer mb |
| 20260508111503 | 58 | 115 | 1.7 | 3.5 | 0.00 | 0.00 | 0.00 | 61 | 1017.4 |
| 20260508111003 | 58 | 122 | 0.9 | 3.5 | 0.00 | 0.00 | 0.00 | 61 | 1017.5 |
| 20260508110503 | 57 | 138 | 0.9 | 3.5 | 0.00 | 0.00 | 0.00 | 60 | 1017.6 |
| 20260508110003 | 57 | 118 | 1.7 | 3.5 | 0.00 | 0.00 | 0.00 | 61 | 1017.4 |
| 20260508105503 | 56 | 103 | 1.7 | 3.5 | 0.00 | 0.00 | 0.00 | 63 | 1017.5 |
| 20260508105003 | 56 | 107 | 1.7 | 3.5 | 0.00 | 0.00 | 0.00 | 63 | 1017.4 |
| 20260508104503 | 56 | 122 | 1.7 | 3.5 | 0.00 | 0.00 | 0.00 | 64 | 1017.5 |
| 20260508104003 | 56 | 122 | 0.9 | 2.6 | 0.00 | 0.00 | 0.00 | 64 | 1017.5 |
| 20260508103524 | 56 | 101 | 0.9 | 3.5 | 0.00 | 0.00 | 0.00 | 64 | 1017.3 |
| 20260508103024 | 56 | 94 | 1.7 | 3.5 | 0.00 | 0.00 | 0.00 | 64 | 1017.3 |
| 20260508102503 | 57 | 115 | 0.9 | 3.5 | 0.00 | 0.00 | 0.00 | 62 | 1017.5 |
| 20260508102003 | 57 | 185 | 0.9 | 3.5 | 0.00 | 0.00 | 0.00 | 63 | 1017.4 |
| 20260508101503 | 56 | 205 | 1.7 | 6.1 | 0.00 | 0.00 | 0.00 | 62 | 1017.5 |
| 20260508101003 | 56 | 208 | 1.7 | 6.1 | 0.00 | 0.00 | 0.00 | 63 | 1017.6 |
| 20260508100503 | 57 | 173 | 1.7 | 3.5 | 0.00 | 0.00 | 0.00 | 63 | 1017.4 |
| 20260508100003 | 56 | 117 | 1.7 | 3.5 | 0.00 | 0.00 | 0.00 | 63 | 1017.4 |
| 20260508095503 | 56 | 99 | 1.7 | 3.5 | 0.00 | 0.00 | 0.00 | 65 | 1017.5 |
| 20260508095024 | 56 | 102 | 1.7 | 5.2 | 0.00 | 0.00 | 0.00 | 66 | 1017.5 |
| 20260508094503 | 56 | 102 | 1.7 | 5.2 | 0.00 | 0.00 | 0.00 | 66 | 1017.5 |
| 20260508094003 | 56 | 107 | 1.7 | 3.5 | 0.00 | 0.00 | 0.00 | 66 | 1017.3 |
| 20260508093503 | 56 | 116 | 1.7 | 3.5 | 0.00 | 0.00 | 0.00 | 65 | 1017.3 |
| 20260508093003 | 56 | 115 | 0.9 | 3.5 | 0.00 | 0.00 | 0.00 | 66 | 1017.3 |
| 20260508092503 | 56 | 106 | 1.7 | 5.2 | 0.00 | 0.00 | 0.00 | 66 | 1017.1 |
| 20260508092024 | 56 | 102 | 1.7 | 7.0 | 0.00 | 0.00 | 0.00 | 66 | 1017.0 |
| 20260508091503 | 56 | 100 | 2.6 | 7.0 | 0.00 | 0.00 | 0.00 | 67 | 1017.2 |
| 20260508091003 | 56 | 107 | 1.7 | 5.2 | 0.00 | 0.00 | 0.00 | 66 | 1017.1 |
| 20260508090503 | 56 | 113 | 1.7 | 5.2 | 0.00 | 0.00 | 0.00 | 67 | 1017.1 |
| 20260508090025 | 56 | 114 | 1.7 | 5.2 | 0.00 | 0.00 | 0.00 | 67 | 1016.9 |
| 20260508085503 | 56 | 118 | 0.9 | 5.2 | 0.00 | 0.00 | 0.00 | 67 | 1017.2 |
| 20260508085003 | 56 | 110 | 0.9 | 2.6 | 0.00 | 0.00 | 0.00 | 67 | 1017.1 |
| 20260508084503 | 55 | 110 | 0.9 | 2.6 | 0.00 | 0.00 | 0.00 | 68 | 1017.0 |
| 20260508084003 | 55 | 137 | 0.9 | 1.7 | 0.00 | 0.00 | 0.00 | 69 | 1017.2 |
| 20260508083503 | 54 | 165 | 0.9 | 2.6 | 0.00 | 0.00 | 0.00 | 69 | 1017.1 |
| 20260508083003 | 54 | 147 | 0.9 | 2.6 | 0.00 | 0.00 | 0.00 | 69 | 1017.1 |
| 20260508082503 | 54 | 128 | 0.9 | 5.2 | 0.00 | 0.00 | 0.00 | 68 | 1017.1 |
| 20260508082003 | 54 | 141 | 0.9 | 5.2 | 0.00 | 0.00 | 0.00 | 70 | 1017.0 |
| 20260508081503 | 54 | 263 | 0.9 | 1.7 | 0.00 | 0.00 | 0.00 | 70 | 1017.2 |
| 20260508081003 | 54 | 293 | 0.9 | 2.6 | 0.00 | 0.00 | 0.00 | 71 | 1017.1 |
| 20260508080503 | 52 | 304 | 0.9 | 2.6 | 0.00 | 0.00 | 0.00 | 72 | 1017.1 |
| 20260508080003 | 52 | 286 | 0.9 | 2.6 | 0.00 | 0.00 | 0.00 | 72 | 1017.1 |
| 20260508075503 | 52 | 301 | 0.9 | 2.6 | 0.00 | 0.00 | 0.00 | 72 | 1017.1 |
| 20260508075003 | 53 | 352 | 0.9 | 2.6 | 0.00 | 0.00 | 0.00 | 72 | 1017.1 |
| 20260508074503 | 52 | 22 | 0.0 | 0.9 | 0.00 | 0.00 | 0.00 | 72 | 1016.9 |
| 20260508074003 | 52 | 22 | 0.0 | 0.9 | 0.00 | 0.00 | 0.00 | 73 | 1016.8 |
| 20260508073524 | 52 | 22 | 0.0 | 0.9 | 0.00 | 0.00 | 0.00 | 74 | 1016.9 |
| 20260508073003 | 51 | 22 | 0.0 | 0.9 | 0.00 | 0.00 | 0.00 | 76 | 1016.9 |
| 20260508072504 | 51 | 22 | 0.0 | 1.7 | 0.00 | 0.00 | 0.00 | 76 | 1017.0 |
| 20260508072003 | 51 | 11 | 0.0 | 1.7 | 0.00 | 0.00 | 0.00 | 77 | 1017.0 |
| 20260508071504 | 50 | 342 | 0.0 | 1.7 | 0.00 | 0.00 | 0.00 | 77 | 1017.0 |
| 20260508071003 | 50 | 336 | 0.9 | 2.6 | 0.00 | 0.00 | 0.00 | 78 | 1016.6 |
| 20260508070503 | 49 | 338 | 0.9 | 3.5 | 0.00 | 0.00 | 0.00 | 78 | 1016.8 |
| 20260508070003 | 49 | 327 | 0.9 | 3.5 | 0.00 | 0.00 | 0.00 | 79 | 1016.5 |
| 20260508065503 | 49 | 310 | 0.9 | 5.2 | 0.00 | 0.00 | 0.00 | 79 | 1016.6 |
| 20260508065003 | 49 | 297 | 0.9 | 5.2 | 0.00 | 0.00 | 0.00 | 79 | 1016.5 |
| 20260508064503 | 49 | 235 | 0.0 | 1.7 | 0.00 | 0.00 | 0.00 | 80 | 1016.3 |
| 20260508064003 | 48 | 203 | 0.0 | 1.7 | 0.00 | 0.00 | 0.00 | 81 | 1016.5 |
| 20260508063503 | 47 | 213 | 0.0 | 1.7 | 0.00 | 0.00 | 0.00 | 82 | 1016.4 |
| 20260508063003 | 47 | 212 | 0.0 | 0.9 | 0.00 | 0.00 | 0.00 | 82 | 1016.3 |
| 20260508062503 | 47 | 214 | 0.0 | 1.7 | 0.00 | 0.00 | 0.00 | 83 | 1016.3 |
| 20260508062003 | 47 | 212 | 0.9 | 2.6 | 0.00 | 0.00 | 0.00 | 83 | 1016.4 |
| 20260508061503 | 47 | 199 | 0.9 | 2.6 | 0.00 | 0.00 | 0.00 | 82 | 1016.2 |
| 20260508061003 | 47 | 162 | 0.9 | 2.6 | 0.00 | 0.00 | 0.00 | 82 | 1016.3 |
| 20260508060524 | 47 | 124 | 0.9 | 2.6 | 0.00 | 0.00 | 0.00 | 83 | 1015.9 |
| 20260508060004 | 47 | 113 | 0.9 | 2.6 | 0.00 | 0.00 | 0.00 | 83 | 1016.1 |
| 20260508055503 | 46 | 121 | 0.0 | 2.6 | 0.00 | 0.00 | 0.00 | 83 | 1016.0 |
| 20260508055004 | 46 | 38 | 0.0 | 1.7 | 0.00 | 0.00 | 0.00 | 83 | 1015.9 |
| 20260508054503 | 46 | 311 | 0.9 | 1.7 | 0.00 | 0.00 | 0.00 | 83 | 1015.8 |
| 20260508054003 | 46 | 307 | 0.9 | 1.7 | 0.00 | 0.00 | 0.00 | 82 | 1015.9 |
| 20260508053503 | 46 | 76 | 0.9 | 2.6 | 0.00 | 0.00 | 0.00 | 82 | 1015.8 |
| 20260508053003 | 46 | 95 | 0.9 | 3.5 | 0.00 | 0.00 | 0.00 | 82 | 1015.8 |
| 20260508052524 | 46 | 92 | 0.9 | 3.5 | 0.00 | 0.00 | 0.00 | 82 | 1015.7 |
| 20260508052024 | 46 | 99 | 1.7 | 5.2 | 0.00 | 0.00 | 0.00 | 82 | 1015.7 |
| 20260508051503 | 46 | 100 | 1.7 | 5.2 | 0.00 | 0.00 | 0.00 | 82 | 1015.7 |
| 20260508051003 | 47 | 98 | 0.9 | 3.5 | 0.00 | 0.00 | 0.00 | 82 | 1015.5 |
| 20260508050525 | 47 | 97 | 1.7 | 3.5 | 0.00 | 0.00 | 0.00 | 81 | 1015.7 |
| 20260508050024 | 47 | 100 | 1.7 | 3.5 | 0.00 | 0.00 | 0.00 | 81 | 1015.7 |
| 20260508045503 | 47 | 102 | 1.7 | 3.5 | 0.00 | 0.00 | 0.00 | 80 | 1015.5 |
| 20260508045003 | 47 | 99 | 1.7 | 3.5 | 0.00 | 0.00 | 0.00 | 80 | 1015.6 |
| 20260508044503 | 47 | 97 | 1.7 | 3.5 | 0.00 | 0.00 | 0.00 | 80 | 1015.7 |
| 20260508044003 | 47 | 97 | 1.7 | 3.5 | 0.00 | 0.00 | 0.00 | 80 | 1015.7 |
| 20260508043504 | 47 | 98 | 1.7 | 2.6 | 0.00 | 0.00 | 0.00 | 80 | 1015.7 |
| 20260508043003 | 47 | 97 | 1.7 | 5.2 | 0.00 | 0.00 | 0.00 | 81 | 1015.7 |
| 20260508042503 | 47 | 92 | 0.9 | 5.2 | 0.00 | 0.00 | 0.00 | 81 | 1015.4 |
| 20260508042024 | 47 | 95 | 0.9 | 3.5 | 0.00 | 0.00 | 0.00 | 81 | 1015.7 |
| 20260508041504 | 47 | 95 | 0.9 | 3.5 | 0.00 | 0.00 | 0.00 | 81 | 1015.6 |
| 20260508041003 | 47 | 98 | 0.9 | 2.6 | 0.00 | 0.00 | 0.00 | 81 | 1015.5 |
| 20260508040503 | 47 | 107 | 0.9 | 2.6 | 0.00 | 0.00 | 0.00 | 81 | 1015.6 |
| 20260508040003 | 47 | 107 | 0.9 | 2.6 | 0.00 | 0.00 | 0.00 | 81 | 1015.7 |
| 20260508035524 | 47 | 107 | 0.9 | 2.6 | 0.00 | 0.00 | 0.00 | 81 | 1015.6 |
| 20260508035003 | 47 | 105 | 0.9 | 2.6 | 0.00 | 0.00 | 0.00 | 81 | 1015.6 |
| 20260508034503 | 47 | 101 | 0.9 | 2.6 | 0.00 | 0.00 | 0.00 | 80 | 1015.7 |
| 20260508034003 | 47 | 101 | 0.9 | 3.5 | 0.00 | 0.00 | 0.00 | 81 | 1015.6 |
| 20260508033503 | 47 | 104 | 0.9 | 3.5 | 0.00 | 0.00 | 0.00 | 81 | 1015.6 |
| 20260508033003 | 47 | 100 | 0.9 | 3.5 | 0.00 | 0.00 | 0.00 | 81 | 1015.6 |
| 20260508032503 | 47 | 102 | 0.9 | 3.5 | 0.00 | 0.00 | 0.00 | 81 | 1015.5 |
| 20260508032004 | 47 | 102 | 1.7 | 3.5 | 0.00 | 0.00 | 0.00 | 80 | 1015.5 |
| 20260508031503 | 47 | 98 | 1.7 | 3.5 | 0.00 | 0.00 | 0.00 | 80 | 1015.5 |
| 20260508031003 | 47 | 99 | 1.7 | 2.6 | 0.00 | 0.00 | 0.00 | 80 | 1015.5 |
| 20260508030503 | 47 | 104 | 0.9 | 3.5 | 0.00 | 0.00 | 0.00 | 80 | 1015.4 |
| 20260508030003 | 48 | 105 | 1.7 | 3.5 | 0.00 | 0.00 | 0.00 | 80 | 1015.5 |
| 20260508025503 | 48 | 108 | 1.7 | 5.2 | 0.00 | 0.00 | 0.00 | 80 | 1015.2 |
| 20260508025003 | 48 | 109 | 1.7 | 5.2 | 0.00 | 0.00 | 0.00 | 80 | 1015.5 |
| 20260508024503 | 48 | 105 | 1.7 | 3.5 | 0.00 | 0.00 | 0.00 | 80 | 1015.4 |
| 20260508024003 | 48 | 104 | 1.7 | 3.5 | 0.00 | 0.00 | 0.00 | 79 | 1015.5 |
| 20260508023503 | 48 | 113 | 1.7 | 3.5 | 0.00 | 0.00 | 0.00 | 79 | 1015.6 |
| 20260508023003 | 48 | 114 | 0.9 | 3.5 | 0.00 | 0.00 | 0.00 | 79 | 1015.6 |
| 20260508022503 | 48 | 129 | 0.9 | 2.6 | 0.00 | 0.00 | 0.00 | 79 | 1015.6 |
| 20260508022003 | 48 | 125 | 0.9 | 5.2 | 0.00 | 0.00 | 0.00 | 79 | 1015.4 |
| 20260508021524 | 48 | 140 | 1.7 | 5.2 | 0.00 | 0.00 | 0.00 | 79 | 1015.3 |
| 20260508021003 | 48 | 164 | 1.7 | 3.5 | 0.00 | 0.00 | 0.00 | 79 | 1015.5 |
| 20260508020503 | 48 | 127 | 0.9 | 3.5 | 0.00 | 0.00 | 0.00 | 79 | 1015.2 |
| 20260508020024 | 48 | 111 | 0.9 | 3.5 | 0.00 | 0.00 | 0.00 | 79 | 1015.3 |
| 20260508015503 | 48 | 113 | 0.9 | 5.2 | 0.00 | 0.00 | 0.00 | 79 | 1015.4 |
| 20260508015003 | 48 | 118 | 0.9 | 5.2 | 0.00 | 0.00 | 0.00 | 79 | 1015.4 |
| 20260508014503 | 48 | 110 | 1.7 | 5.2 | 0.00 | 0.00 | 0.00 | 79 | 1015.2 |
| 20260508014003 | 48 | 103 | 1.7 | 3.5 | 0.00 | 0.00 | 0.00 | 78 | 1015.4 |
| 20260508013503 | 49 | 99 | 1.7 | 3.5 | 0.00 | 0.00 | 0.00 | 78 | 1015.4 |
| 20260508013003 | 49 | 101 | 1.7 | 5.2 | 0.00 | 0.00 | 0.00 | 78 | 1015.4 |
| 20260508012503 | 49 | 104 | 1.7 | 5.2 | 0.00 | 0.00 | 0.00 | 78 | 1015.2 |
| 20260508012003 | 49 | 98 | 0.9 | 5.2 | 0.00 | 0.00 | 0.00 | 78 | 1015.2 |
| 20260508011503 | 49 | 100 | 1.7 | 5.2 | 0.00 | 0.00 | 0.00 | 77 | 1015.3 |
| 20260508011024 | 49 | 104 | 1.7 | 5.2 | 0.00 | 0.00 | 0.00 | 78 | 1015.2 |
| 20260508010503 | 49 | 103 | 1.7 | 5.2 | 0.00 | 0.00 | 0.00 | 78 | 1015.3 |
| 20260508010003 | 48 | 103 | 1.7 | 5.2 | 0.00 | 0.00 | 0.00 | 79 | 1015.5 |
| 20260508005503 | 48 | 102 | 1.7 | 3.5 | 0.00 | 0.00 | 0.00 | 79 | 1015.5 |
| 20260508005024 | 49 | 102 | 0.9 | 2.6 | 0.00 | 0.00 | 0.00 | 78 | 1015.5 |
| 20260508004503 | 49 | 113 | 0.9 | 2.6 | 0.00 | 0.00 | 0.00 | 77 | 1015.5 |
| 20260508004003 | 48 | 120 | 0.9 | 1.7 | 0.00 | 0.00 | 0.00 | 78 | 1015.7 |
| 20260508003503 | 48 | 119 | 0.9 | 3.5 | 0.00 | 0.00 | 0.00 | 78 | 1015.7 |
| 20260508003003 | 48 | 137 | 0.9 | 3.5 | 0.00 | 0.00 | 0.00 | 78 | 1015.7 |
| 20260508002524 | 48 | 141 | 0.9 | 2.6 | 0.00 | 0.00 | 0.00 | 78 | 1015.7 |
| 20260508002024 | 48 | 113 | 0.9 | 2.6 | 0.00 | 0.00 | 0.00 | 79 | 1015.8 |
| 20260508001524 | 48 | 110 | 0.9 | 2.6 | 0.00 | 0.00 | 0.00 | 79 | 1015.8 |
| 20260508001003 | 48 | 115 | 0.9 | 2.6 | 0.00 | 0.00 | 0.00 | 79 | 1015.5 |
| 20260508000503 | 47 | 127 | 0.0 | 1.7 | 0.00 | 0.00 | 0.00 | 79 | 1015.9 |
| 20260508000004 | 47 | 139 | 0.9 | 3.5 | 0.00 | 0.00 | 0.00 | 78 | 1015.7 |
| 20260507235503 | 47 | 142 | 0.9 | 3.5 | 0.00 | 0.00 | 0.00 | 78 | 1015.7 |
| 20260507235003 | 47 | 162 | 0.9 | 3.5 | 0.00 | 0.00 | 0.00 | 78 | 1015.8 |
| 20260507234503 | 47 | 187 | 1.7 | 3.5 | 0.00 | 0.00 | 0.00 | 77 | 1015.7 |
| 20260507234024 | 48 | 189 | 1.7 | 3.5 | 0.00 | 0.00 | 0.00 | 77 | 1015.6 |
| 20260507233503 | 48 | 180 | 0.9 | 3.5 | 0.00 | 0.00 | 0.00 | 77 | 1015.6 |
| 20260507233003 | 48 | 158 | 0.9 | 2.6 | 0.00 | 0.00 | 0.00 | 77 | 1015.6 |
| 20260507232504 | 48 | 130 | 0.9 | 2.6 | 0.00 | 0.00 | 0.00 | 76 | 1015.5 |
| 20260507232024 | 48 | 129 | 0.9 | 3.5 | 0.00 | 0.00 | 0.00 | 76 | 1015.6 |
| 20260507231503 | 49 | 139 | 0.9 | 3.5 | 0.00 | 0.00 | 0.00 | 75 | 1015.6 |
| 20260507231003 | 49 | 136 | 0.9 | 2.6 | 0.00 | 0.00 | 0.00 | 75 | 1015.5 |
| 20260507230503 | 49 | 143 | 0.9 | 2.6 | 0.00 | 0.00 | 0.00 | 74 | 1015.6 |
| 20260507230004 | 49 | 129 | 0.9 | 3.5 | 0.00 | 0.00 | 0.00 | 74 | 1015.6 |
| 20260507225503 | 49 | 125 | 0.9 | 3.5 | 0.00 | 0.00 | 0.00 | 74 | 1015.5 |
| 20260507225004 | 49 | 140 | 0.9 | 2.6 | 0.00 | 0.00 | 0.00 | 74 | 1015.8 |
| 20260507224504 | 49 | 130 | 0.9 | 2.6 | 0.00 | 0.00 | 0.00 | 73 | 1015.5 |
| 20260507224003 | 49 | 114 | 0.9 | 1.7 | 0.00 | 0.00 | 0.00 | 73 | 1015.4 |
| 20260507223503 | 49 | 138 | 0.9 | 2.6 | 0.00 | 0.00 | 0.00 | 73 | 1015.5 |
| 20260507223003 | 50 | 132 | 0.9 | 2.6 | 0.00 | 0.00 | 0.00 | 72 | 1015.3 |
| 20260507222503 | 50 | 113 | 0.9 | 2.6 | 0.00 | 0.00 | 0.00 | 72 | 1015.4 |
| 20260507222003 | 50 | 121 | 0.9 | 2.6 | 0.00 | 0.00 | 0.00 | 71 | 1015.4 |
| 20260507221503 | 51 | 139 | 0.9 | 2.6 | 0.00 | 0.00 | 0.00 | 71 | 1015.4 |
| 20260507221003 | 51 | 151 | 0.9 | 5.2 | 0.00 | 0.00 | 0.00 | 71 | 1015.3 |
| 20260507220503 | 51 | 142 | 1.7 | 5.2 | 0.00 | 0.00 | 0.00 | 70 | 1015.3 |
| 20260507220003 | 51 | 140 | 0.9 | 3.5 | 0.00 | 0.00 | 0.00 | 70 | 1015.4 |
| 20260507215503 | 51 | 162 | 0.9 | 3.5 | 0.00 | 0.00 | 0.00 | 70 | 1015.3 |
| 20260507215024 | 51 | 160 | 1.7 | 3.5 | 0.00 | 0.00 | 0.00 | 70 | 1015.5 |
| 20260507214503 | 51 | 144 | 0.9 | 3.5 | 0.00 | 0.00 | 0.00 | 69 | 1015.5 |
| 20260507214003 | 51 | 139 | 0.9 | 2.6 | 0.00 | 0.00 | 0.00 | 70 | 1015.2 |
| 20260507213504 | 51 | 127 | 0.9 | 2.6 | 0.00 | 0.00 | 0.00 | 70 | 1015.4 |
| 20260507213024 | 51 | 136 | 0.9 | 2.6 | 0.00 | 0.00 | 0.00 | 70 | 1015.4 |
| 20260507212503 | 51 | 136 | 1.7 | 3.5 | 0.00 | 0.00 | 0.00 | 69 | 1015.4 |
| 20260507212003 | 51 | 140 | 1.7 | 5.2 | 0.00 | 0.00 | 0.00 | 69 | 1015.6 |
| 20260507211504 | 51 | 158 | 1.7 | 5.2 | 0.00 | 0.00 | 0.00 | 69 | 1015.4 |
| 20260507211003 | 51 | 154 | 1.7 | 5.2 | 0.00 | 0.00 | 0.00 | 69 | 1015.3 |
| 20260507210503 | 51 | 148 | 1.7 | 5.2 | 0.00 | 0.00 | 0.00 | 69 | 1015.2 |
| 20260507210003 | 51 | 153 | 0.9 | 2.6 | 0.00 | 0.00 | 0.00 | 70 | 1015.4 |
| 20260507205503 | 51 | 151 | 0.9 | 2.6 | 0.00 | 0.00 | 0.00 | 71 | 1015.1 |
| 20260507205003 | 51 | 157 | 0.9 | 2.6 | 0.00 | 0.00 | 0.00 | 72 | 1015.1 |
| 20260507204503 | 51 | 149 | 0.9 | 2.6 | 0.00 | 0.00 | 0.00 | 72 | 1015.1 |
| 20260507204003 | 51 | 133 | 0.9 | 1.7 | 0.00 | 0.00 | 0.00 | 73 | 1015.3 |
| 20260507203503 | 51 | 127 | 0.0 | 1.7 | 0.00 | 0.00 | 0.00 | 73 | 1015.2 |
| 20260507203004 | 51 | 108 | 0.0 | 0.9 | 0.00 | 0.00 | 0.00 | 73 | 1015.1 |
| 20260507202503 | 51 | 188 | 0.0 | 2.6 | 0.00 | 0.00 | 0.00 | 72 | 1015.0 |
| 20260507202003 | 51 | 210 | 0.9 | 2.6 | 0.00 | 0.00 | 0.00 | 72 | 1015.3 |
| 20260507201503 | 51 | 212 | 0.9 | 2.6 | 0.00 | 0.00 | 0.00 | 71 | 1015.1 |
| 20260507201003 | 51 | 206 | 0.9 | 1.7 | 0.00 | 0.00 | 0.00 | 70 | 1014.8 |
| 20260507200503 | 52 | 198 | 1.7 | 2.6 | 0.00 | 0.00 | 0.00 | 69 | 1014.9 |
| 20260507200003 | 52 | 182 | 1.7 | 3.5 | 0.00 | 0.00 | 0.00 | 68 | 1015.1 |
| 20260507195524 | 52 | 172 | 1.7 | 3.5 | 0.00 | 0.00 | 0.00 | 67 | 1014.8 |
| 20260507195004 | 52 | 191 | 0.9 | 5.2 | 0.00 | 0.00 | 0.00 | 66 | 1014.8 |
| 20260507194503 | 53 | 186 | 0.9 | 5.2 | 0.00 | 0.00 | 0.00 | 65 | 1014.7 |
| 20260507194024 | 52 | 167 | 0.9 | 2.6 | 0.00 | 0.00 | 0.00 | 65 | 1014.8 |
| 20260507193503 | 53 | 167 | 0.9 | 2.6 | 0.00 | 0.00 | 0.00 | 65 | 1014.9 |
| 20260507193003 | 53 | 174 | 0.9 | 2.6 | 0.00 | 0.00 | 0.00 | 65 | 1014.7 |
| 20260507192503 | 53 | 164 | 0.9 | 2.6 | 0.00 | 0.00 | 0.00 | 64 | 1014.6 |
| 20260507192024 | 53 | 141 | 0.9 | 2.6 | 0.00 | 0.00 | 0.00 | 64 | 1014.7 |
| 20260507191503 | 53 | 150 | 0.9 | 2.6 | 0.00 | 0.00 | 0.00 | 63 | 1014.8 |
| 20260507191003 | 53 | 152 | 0.9 | 1.7 | 0.00 | 0.00 | 0.00 | 62 | 1014.6 |
| 20260507190525 | 53 | 141 | 0.9 | 1.7 | 0.00 | 0.00 | 0.00 | 62 | 1014.5 |
| 20260507190004 | 54 | 153 | 0.9 | 5.2 | 0.00 | 0.00 | 0.00 | 62 | 1014.4 |
| 20260507185503 | 54 | 163 | 0.9 | 5.2 | 0.00 | 0.00 | 0.00 | 60 | 1014.5 |
| 20260507185024 | 54 | 181 | 1.7 | 5.2 | 0.00 | 0.00 | 0.00 | 59 | 1014.6 |
| 20260507184504 | 54 | 182 | 1.7 | 5.2 | 0.00 | 0.00 | 0.00 | 59 | 1014.6 |
| 20260507184024 | 54 | 178 | 1.7 | 5.2 | 0.00 | 0.00 | 0.00 | 59 | 1014.3 |
| 20260507183503 | 54 | 174 | 1.7 | 5.2 | 0.00 | 0.00 | 0.00 | 58 | 1014.3 |
| 20260507183003 | 54 | 177 | 1.7 | 6.1 | 0.00 | 0.00 | 0.00 | 58 | 1014.3 |
| 20260507182503 | 54 | 187 | 2.6 | 6.1 | 0.00 | 0.00 | 0.00 | 58 | 1014.3 |
| 20260507182004 | 54 | 196 | 2.6 | 5.2 | 0.00 | 0.00 | 0.00 | 57 | 1014.2 |
| 20260507181524 | 54 | 195 | 2.6 | 6.1 | 0.00 | 0.00 | 0.00 | 57 | 1014.4 |
| 20260507181003 | 54 | 199 | 2.6 | 6.1 | 0.00 | 0.00 | 0.00 | 57 | 1014.3 |
| 20260507180503 | 55 | 202 | 1.7 | 6.1 | 0.00 | 0.00 | 0.00 | 57 | 1014.3 |
| 20260507180004 | 55 | 205 | 2.6 | 6.1 | 0.00 | 0.00 | 0.00 | 56 | 1014.2 |
| 20260507175503 | 55 | 202 | 2.6 | 6.1 | 0.00 | 0.00 | 0.00 | 55 | 1014.2 |
| 20260507175003 | 55 | 188 | 1.7 | 6.1 | 0.00 | 0.00 | 0.00 | 55 | 1014.4 |
| 20260507174503 | 55 | 179 | 1.7 | 5.2 | 0.00 | 0.00 | 0.00 | 56 | 1014.3 |
| 20260507174003 | 55 | 176 | 1.7 | 7.0 | 0.00 | 0.00 | 0.00 | 57 | 1014.1 |
| 20260507173503 | 55 | 175 | 1.7 | 7.0 | 0.00 | 0.00 | 0.00 | 56 | 1014.2 |
| 20260507173024 | 55 | 164 | 1.7 | 6.1 | 0.00 | 0.00 | 0.00 | 57 | 1014.2 |
| 20260507172503 | 55 | 166 | 1.7 | 6.1 | 0.00 | 0.00 | 0.00 | 55 | 1014.2 |
| 20260507172003 | 56 | 168 | 1.7 | 6.1 | 0.00 | 0.00 | 0.00 | 55 | 1014.1 |
| 20260507171503 | 56 | 169 | 1.7 | 5.2 | 0.00 | 0.00 | 0.00 | 55 | 1014.3 |
| 20260507171003 | 56 | 167 | 1.7 | 5.2 | 0.00 | 0.00 | 0.00 | 56 | 1014.2 |
| 20260507170503 | 56 | 165 | 0.9 | 5.2 | 0.00 | 0.00 | 0.00 | 54 | 1014.3 |
| 20260507170024 | 56 | 159 | 0.9 | 3.5 | 0.00 | 0.00 | 0.00 | 56 | 1014.2 |
| 20260507165503 | 56 | 154 | 0.9 | 3.5 | 0.00 | 0.00 | 0.00 | 55 | 1014.3 |
| 20260507165003 | 56 | 162 | 0.9 | 3.5 | 0.00 | 0.00 | 0.00 | 56 | 1014.4 |
| 20260507164503 | 56 | 149 | 0.9 | 5.2 | 0.00 | 0.00 | 0.00 | 57 | 1014.3 |
| 20260507164024 | 56 | 146 | 1.7 | 5.2 | 0.00 | 0.00 | 0.00 | 56 | 1014.3 |
| 20260507163524 | 55 | 150 | 1.7 | 3.5 | 0.00 | 0.00 | 0.00 | 55 | 1014.4 |
| 20260507163004 | 55 | 171 | 1.7 | 5.2 | 0.00 | 0.00 | 0.00 | 56 | 1014.3 |
| 20260507162503 | 56 | 200 | 1.7 | 6.1 | 0.00 | 0.00 | 0.00 | 56 | 1014.4 |
| 20260507162003 | 56 | 214 | 2.6 | 6.1 | 0.00 | 0.00 | 0.00 | 54 | 1014.5 |
| 20260507161503 | 56 | 202 | 1.7 | 6.1 | 0.00 | 0.00 | 0.00 | 55 | 1014.3 |
| 20260507161025 | 56 | 185 | 1.7 | 5.2 | 0.00 | 0.00 | 0.00 | 54 | 1014.3 |
| 20260507160503 | 57 | 186 | 1.7 | 7.0 | 0.00 | 0.00 | 0.00 | 54 | 1014.5 |
| 20260507160003 | 57 | 174 | 1.7 | 7.0 | 0.00 | 0.00 | 0.00 | 53 | 1014.5 |
| 20260507155503 | 57 | 162 | 1.7 | 6.1 | 0.00 | 0.00 | 0.00 | 53 | 1014.5 |
| 20260507155003 | 57 | 170 | 1.7 | 7.0 | 0.00 | 0.00 | 0.00 | 53 | 1014.4 |
| 20260507154524 | 58 | 175 | 1.7 | 7.0 | 0.00 | 0.00 | 0.00 | 51 | 1014.4 |
| 20260507154003 | 58 | 186 | 1.7 | 7.0 | 0.00 | 0.00 | 0.00 | 52 | 1014.5 |
| 20260507153504 | 58 | 182 | 2.6 | 6.1 | 0.00 | 0.00 | 0.00 | 51 | 1014.2 |
| 20260507153024 | 58 | 173 | 2.6 | 7.0 | 0.00 | 0.00 | 0.00 | 51 | 1014.5 |
| 20260507152503 | 58 | 173 | 2.6 | 7.0 | 0.00 | 0.00 | 0.00 | 51 | 1014.4 |
| 20260507152003 | 58 | 182 | 2.6 | 7.8 | 0.00 | 0.00 | 0.00 | 55 | 1014.4 |
| 20260507151503 | 57 | 192 | 3.5 | 7.8 | 0.00 | 0.00 | 0.00 | 55 | 1014.5 |
| 20260507151003 | 57 | 178 | 2.6 | 7.0 | 0.00 | 0.00 | 0.00 | 54 | 1014.6 |
| 20260507150503 | 58 | 159 | 1.7 | 6.1 | 0.00 | 0.00 | 0.00 | 54 | 1014.5 |
| 20260507150004 | 57 | 187 | 2.6 | 7.8 | 0.00 | 0.00 | 0.00 | 56 | 1014.6 |
| 20260507145503 | 56 | 192 | 2.6 | 7.8 | 0.00 | 0.00 | 0.00 | 56 | 1014.4 |
| 20260507145003 | 57 | 182 | 2.6 | 8.7 | 0.00 | 0.00 | 0.00 | 56 | 1014.7 |
| 20260507144524 | 57 | 187 | 2.6 | 8.7 | 0.00 | 0.00 | 0.00 | 56 | 1014.6 |
| 20260507144003 | 57 | 199 | 2.6 | 7.0 | 0.00 | 0.00 | 0.00 | 56 | 1014.7 |
| 20260507143503 | 58 | 206 | 2.6 | 7.8 | 0.00 | 0.00 | 0.00 | 55 | 1014.8 |
| 20260507143003 | 56 | 206 | 2.6 | 7.8 | 0.00 | 0.00 | 0.00 | 57 | 1015.0 |
| 20260507142503 | 57 | 186 | 2.6 | 7.8 | 0.00 | 0.00 | 0.00 | 56 | 1015.2 |
| 20260507142003 | 57 | 181 | 2.6 | 9.6 | 0.00 | 0.00 | 0.00 | 57 | 1015.1 |
| 20260507141524 | 57 | 207 | 2.6 | 9.6 | 0.00 | 0.00 | 0.00 | 56 | 1015.3 |
| 20260507141024 | 56 | 212 | 3.5 | 8.7 | 0.00 | 0.00 | 0.00 | 56 | 1015.1 |
| 20260507140503 | 56 | 178 | 2.6 | 8.7 | 0.00 | 0.00 | 0.00 | 56 | 1015.3 |
| 20260507140003 | 56 | 173 | 2.6 | 7.8 | 0.00 | 0.00 | 0.00 | 57 | 1015.2 |
| 20260507135504 | 56 | 199 | 1.7 | 7.8 | 0.00 | 0.00 | 0.00 | 58 | 1015.3 |
| 20260507135003 | 57 | 187 | 1.7 | 5.2 | 0.00 | 0.00 | 0.00 | 56 | 1015.1 |
| 20260507134524 | 56 | 189 | 2.6 | 7.0 | 0.00 | 0.00 | 0.00 | 56 | 1015.2 |
| 20260507134004 | 55 | 187 | 2.6 | 7.0 | 0.00 | 0.00 | 0.00 | 58 | 1015.2 |
| 20260507133503 | 56 | 173 | 1.7 | 7.0 | 0.00 | 0.00 | 0.00 | 58 | 1015.3 |
| 20260507133024 | 55 | 181 | 1.7 | 6.1 | 0.00 | 0.00 | 0.00 | 58 | 1015.5 |
| 20260507132503 | 55 | 164 | 2.6 | 7.8 | 0.00 | 0.00 | 0.00 | 58 | 1015.4 |
| 20260507132003 | 55 | 172 | 2.6 | 7.8 | 0.00 | 0.00 | 0.00 | 57 | 1015.5 |
| 20260507131503 | 55 | 193 | 2.6 | 7.8 | 0.00 | 0.00 | 0.00 | 59 | 1015.4 |
| 20260507131003 | 54 | 186 | 2.6 | 7.8 | 0.00 | 0.00 | 0.00 | 59 | 1015.4 |
| 20260507130524 | 54 | 179 | 2.6 | 7.0 | 0.00 | 0.00 | 0.00 | 60 | 1015.2 |
| 20260507130003 | 54 | 180 | 2.6 | 6.1 | 0.00 | 0.00 | 0.00 | 61 | 1015.4 |
| 20260507125503 | 53 | 181 | 2.6 | 8.7 | 0.00 | 0.00 | 0.00 | 60 | 1015.3 |
| 20260507125003 | 53 | 169 | 2.6 | 8.7 | 0.00 | 0.00 | 0.00 | 60 | 1015.4 |
| 20260507124524 | 53 | 165 | 2.6 | 7.8 | 0.00 | 0.00 | 0.00 | 60 | 1015.4 |
| 20260507124003 | 53 | 155 | 2.6 | 7.8 | 0.00 | 0.00 | 0.00 | 61 | 1015.4 |
| 20260507123503 | 52 | 152 | 1.7 | 7.0 | 0.00 | 0.00 | 0.00 | 62 | 1015.6 |
| 20260507123024 | 52 | 167 | 1.7 | 5.2 | 0.00 | 0.00 | 0.00 | 64 | 1015.5 |
| 20260507122503 | 52 | 164 | 1.7 | 5.2 | 0.00 | 0.00 | 0.00 | 65 | 1015.5 |
| 20260507122004 | 52 | 174 | 1.7 | 6.1 | 0.00 | 0.00 | 0.00 | 65 | 1015.7 |
| 20260507121503 | 51 | 139 | 1.7 | 6.1 | 0.00 | 0.00 | 0.00 | 66 | 1015.7 |
| 20260507121003 | 51 | 107 | 1.7 | 6.1 | 0.00 | 0.00 | 0.00 | 67 | 1015.6 |
| 20260507120503 | 51 | 115 | 2.6 | 7.0 | 0.00 | 0.00 | 0.00 | 67 | 1015.6 |
| 20260507120004 | 50 | 126 | 2.6 | 7.0 | 0.00 | 0.00 | 0.00 | 67 | 1015.4 |
| 20260507115503 | 50 | 121 | 2.6 | 7.8 | 0.00 | 0.00 | 0.00 | 67 | 1015.3 |
| 20260507115003 | 50 | 124 | 3.5 | 7.8 | 0.00 | 0.00 | 0.00 | 67 | 1015.5 |
| 20260507114503 | 50 | 123 | 2.6 | 7.8 | 0.00 | 0.00 | 0.00 | 67 | 1015.5 |
| 20260507114003 | 50 | 119 | 2.6 | 7.0 | 0.00 | 0.00 | 0.00 | 69 | 1015.4 |
| 20260507113524 | 49 | 119 | 2.6 | 7.0 | 0.00 | 0.00 | 0.00 | 70 | 1015.5 |
| 20260507113004 | 49 | 106 | 3.5 | 7.0 | 0.00 | 0.00 | 0.00 | 71 | 1015.4 |
| 20260507112503 | 49 | 106 | 3.5 | 8.7 | 0.00 | 0.00 | 0.00 | 71 | 1015.4 |
| 20260507112003 | 49 | 105 | 3.5 | 8.7 | 0.00 | 0.00 | 0.00 | 73 | 1015.4 |